GEFSCGP_prec_meanprecacc_102.txt.gz
Total_Precipitation_Accumulation
0.00 0.00 0.00 0.00 0.00 0.00 0.00 0.01 0.01 0.01 0.03 0.05 0.06 0.13 0.29 0.44 0.49 0.52 0.67 0.85 1.07 1.25 1.34 1.45 1.63 1.80 1.88 1.91 2.04 2.14 2.41 2.80 3.00 2.97 2.96 2.92 2.60 2.30 1.98 1.76 1.77 1.85 1.89 2.04
0.01 0.01 0.01 0.01 0.00 0.01 0.02 0.03 0.02 0.02 0.05 0.09 0.15 0.23 0.40 0.63 0.67 0.60 0.59 0.68 0.87 1.27 1.50 1.65 1.81 1.92 1.88 2.00 2.24 2.52 2.82 3.12 3.02 3.15 3.36 3.29 3.04 2.45 2.09 1.89 1.86 1.92 1.96 2.02
0.02 0.01 0.00 0.01 0.01 0.02 0.03 0.03 0.02 0.04 0.07 0.07 0.13 0.33 0.48 0.71 0.82 0.70 0.64 0.67 0.67 0.94 1.25 1.38 1.47 1.59 1.85 2.19 2.55 2.80 2.99 3.05 2.99 3.14 3.27 2.98 2.74 2.31 2.17 2.15 2.04 1.98 2.08 2.13
0.01 0.01 0.01 0.02 0.02 0.02 0.02 0.02 0.02 0.02 0.05 0.08 0.13 0.42 0.77 1.01 0.94 0.75 0.73 0.78 0.94 1.08 1.11 1.21 1.33 1.57 1.94 2.27 2.63 2.96 2.95 2.92 2.87 2.99 3.05 2.88 2.60 2.32 2.21 2.23 2.03 1.88 1.86 1.91
0.04 0.02 0.01 0.02 0.03 0.02 0.03 0.02 0.02 0.02 0.03 0.06 0.16 0.42 0.86 1.08 0.94 0.75 0.76 0.92 1.10 1.09 1.03 1.15 1.29 1.50 1.70 2.02 2.32 2.59 2.77 2.81 2.75 2.71 2.67 2.64 2.44 2.19 2.06 2.00 1.87 1.83 1.85 1.77
0.06 0.05 0.04 0.03 0.03 0.03 0.03 0.02 0.03 0.05 0.08 0.15 0.21 0.35 0.72 0.99 0.90 0.73 0.74 0.87 1.02 1.18 1.20 1.24 1.43 1.56 1.64 1.83 2.10 2.26 2.39 2.44 2.40 2.32 2.27 2.29 2.22 2.17 2.02 1.87 1.88 1.91 1.85 1.72
0.14 0.14 0.09 0.06 0.05 0.03 0.03 0.04 0.12 0.26 0.43 0.45 0.36 0.48 0.82 0.79 0.69 0.62 0.67 0.84 1.06 1.27 1.29 1.37 1.53 1.63 1.69 1.72 1.77 1.83 1.87 1.92 1.86 1.78 1.73 1.77 1.79 1.80 1.73 1.71 1.78 1.83 1.75 1.67
0.22 0.19 0.13 0.12 0.09 0.07 0.06 0.09 0.23 0.25 0.26 0.35 0.44 0.67 0.81 0.67 0.58 0.57 0.61 0.74 0.98 1.10 1.16 1.27 1.35 1.27 1.21 1.23 1.28 1.31 1.32 1.33 1.30 1.33 1.36 1.39 1.49 1.53 1.52 1.63 1.64 1.69 1.67 1.62
0.11 0.11 0.11 0.11 0.12 0.12 0.15 0.20 0.18 0.27 0.22 0.30 0.45 0.66 0.67 0.58 0.67 0.72 0.75 0.80 0.84 0.84 0.81 0.84 0.86 0.89 0.95 0.97 0.97 0.97 1.01 1.02 0.97 0.96 1.06 1.13 1.20 1.27 1.29 1.39 1.42 1.41 1.40 1.34
0.04 0.06 0.08 0.07 0.08 0.11 0.17 0.26 0.36 0.52 0.52 0.46 0.43 0.68 0.89 0.91 0.93 0.89 1.00 1.19 1.03 0.74 0.62 0.59 0.59 0.63 0.67 0.70 0.75 0.79 0.88 0.97 0.95 0.88 0.88 0.90 0.95 0.99 1.09 1.16 1.18 1.21 1.25 1.22
0.02 0.05 0.09 0.10 0.10 0.15 0.25 0.32 0.42 0.53 0.56 0.55 0.53 0.67 0.63 0.90 0.97 0.97 0.99 1.00 0.83 0.54 0.38 0.33 0.34 0.38 0.46 0.59 0.67 0.69 0.80 0.88 0.84 0.74 0.73 0.77 0.79 0.83 0.88 0.95 0.96 1.02 1.08 1.15
0.02 0.04 0.08 0.12 0.11 0.11 0.20 0.32 0.43 0.54 0.54 0.55 0.58 0.70 0.49 0.64 0.70 0.70 0.73 0.57 0.44 0.31 0.23 0.21 0.21 0.25 0.33 0.42 0.47 0.55 0.64 0.74 0.76 0.72 0.72 0.75 0.78 0.78 0.78 0.80 0.79 0.81 0.86 0.89
0.01 0.03 0.10 0.23 0.25 0.16 0.16 0.19 0.26 0.36 0.44 0.46 0.57 0.73 0.49 0.46 0.52 0.50 0.43 0.36 0.27 0.22 0.17 0.16 0.17 0.21 0.24 0.29 0.36 0.43 0.48 0.56 0.64 0.66 0.71 0.77 0.76 0.74 0.77 0.80 0.80 0.79 0.78 0.80
0.01 0.02 0.04 0.13 0.16 0.11 0.14 0.19 0.24 0.30 0.40 0.38 0.40 0.56 0.54 0.46 0.41 0.37 0.30 0.24 0.21 0.17 0.16 0.14 0.15 0.16 0.16 0.19 0.26 0.31 0.34 0.41 0.49 0.57 0.72 0.84 0.89 0.90 0.90 0.85 0.86 0.84 0.80 0.81
0.01 0.02 0.03 0.04 0.04 0.07 0.11 0.15 0.19 0.26 0.29 0.36 0.33 0.41 0.46 0.39 0.33 0.27 0.23 0.21 0.22 0.20 0.15 0.12 0.11 0.10 0.11 0.14 0.17 0.25 0.32 0.37 0.43 0.58 0.79 0.90 0.88 0.83 0.82 0.81 0.88 0.85 0.77 0.75
0.01 0.02 0.04 0.07 0.10 0.13 0.18 0.21 0.19 0.17 0.16 0.17 0.23 0.33 0.29 0.27 0.26 0.26 0.24 0.21 0.19 0.16 0.13 0.11 0.10 0.09 0.08 0.08 0.10 0.17 0.27 0.34 0.43 0.55 0.66 0.70 0.74 0.77 0.73 0.68 0.67 0.69 0.71 0.71
0.01 0.02 0.03 0.07 0.16 0.20 0.28 0.24 0.26 0.27 0.21 0.22 0.34 0.36 0.26 0.23 0.19 0.16 0.14 0.13 0.13 0.11 0.09 0.08 0.08 0.08 0.07 0.07 0.10 0.16 0.23 0.28 0.40 0.48 0.52 0.60 0.71 0.74 0.67 0.58 0.61 0.68 0.69 0.68
0.01 0.01 0.03 0.06 0.19 0.35 0.27 0.08 0.07 0.11 0.14 0.15 0.20 0.20 0.17 0.15 0.11 0.09 0.07 0.07 0.07 0.06 0.06 0.06 0.06 0.06 0.05 0.07 0.11 0.16 0.22 0.28 0.38 0.49 0.56 0.62 0.72 0.73 0.69 0.66 0.65 0.65 0.65 0.65
0.01 0.01 0.03 0.06 0.12 0.21 0.13 0.05 0.04 0.07 0.09 0.04 0.07 0.08 0.08 0.06 0.07 0.10 0.06 0.03 0.03 0.03 0.04 0.04 0.04 0.05 0.08 0.11 0.13 0.18 0.26 0.31 0.39 0.50 0.61 0.71 0.80 0.79 0.74 0.72 0.69 0.67 0.65 0.60
0.01 0.01 0.01 0.03 0.10 0.17 0.09 0.04 0.06 0.08 0.21 0.11 0.08 0.07 0.06 0.06 0.13 0.16 0.05 0.01 0.01 0.03 0.08 0.08 0.07 0.10 0.16 0.17 0.18 0.25 0.32 0.40 0.51 0.60 0.69 0.75 0.80 0.83 0.80 0.79 0.76 0.71 0.70 0.63
0.01 0.01 0.01 0.03 0.08 0.10 0.03 0.05 0.07 0.17 0.25 0.06 0.02 0.02 0.02 0.06 0.11 0.08 0.02 0.01 0.01 0.03 0.08 0.12 0.16 0.23 0.25 0.23 0.28 0.36 0.41 0.49 0.55 0.64 0.72 0.80 0.88 0.86 0.82 0.84 0.86 0.83 0.80 0.78
0.01 0.01 0.02 0.04 0.10 0.12 0.02 0.02 0.04 0.06 0.03 0.02 0.02 0.02 0.02 0.02 0.02 0.03 0.02 0.02 0.03 0.04 0.08 0.15 0.26 0.31 0.29 0.32 0.46 0.54 0.56 0.55 0.58 0.68 0.77 0.88 0.95 0.80 0.75 0.90 0.92 0.91 0.92 0.92
0.01 0.01 0.02 0.03 0.05 0.02 0.01 0.01 0.02 0.02 0.02 0.02 0.02 0.01 0.02 0.02 0.02 0.03 0.02 0.03 0.07 0.09 0.11 0.14 0.23 0.29 0.32 0.42 0.59 0.75 0.76 0.68 0.69 0.77 0.87 0.91 0.93 0.97 0.99 0.97 0.97 0.99 0.97 0.99
0.00 0.01 0.01 0.03 0.02 0.01 0.01 0.01 0.01 0.01 0.01 0.01 0.01 0.01 0.01 0.02 0.02 0.02 0.02 0.04 0.07 0.11 0.12 0.14 0.20 0.29 0.39 0.48 0.64 0.78 0.81 0.80 0.83 0.88 0.93 0.97 1.00 1.02 1.07 1.13 1.11 1.07 1.02 1.04
0.00 0.00 0.02 0.05 0.03 0.02 0.01 0.01 0.01 0.00 0.01 0.01 0.01 0.01 0.01 0.02 0.03 0.03 0.04 0.05 0.06 0.09 0.10 0.14 0.23 0.35 0.42 0.49 0.60 0.69 0.74 0.85 0.95 0.98 1.01 1.04 1.07 1.10 1.13 1.15 1.10 1.03 0.99 0.89
0.01 0.01 0.03 0.05 0.03 0.03 0.03 0.01 0.00 0.00 0.01 0.01 0.01 0.01 0.02 0.02 0.03 0.04 0.05 0.06 0.07 0.09 0.12 0.17 0.24 0.32 0.38 0.46 0.56 0.65 0.77 0.91 1.06 1.09 1.03 1.02 1.01 1.05 1.10 1.10 0.95 0.74 0.66 0.60

GEFSCGP_prec_meanprecacc_108.txt.gz
Total_Precipitation_Accumulation
0.00 0.00 0.01 0.00 0.00 0.00 0.01 0.02 0.02 0.02 0.05 0.06 0.09 0.17 0.36 0.52 0.58 0.62 0.80 1.02 1.24 1.37 1.44 1.54 1.69 1.85 1.93 1.97 2.10 2.20 2.48 2.87 3.07 3.05 3.03 2.98 2.66 2.37 2.05 1.82 1.81 1.90 1.93 2.08
0.01 0.01 0.01 0.01 0.00 0.01 0.03 0.04 0.03 0.03 0.06 0.11 0.18 0.27 0.44 0.68 0.73 0.67 0.67 0.78 0.96 1.33 1.56 1.71 1.86 1.96 1.92 2.04 2.27 2.54 2.83 3.14 3.03 3.17 3.37 3.30 3.06 2.48 2.11 1.92 1.89 1.95 1.99 2.04
0.02 0.02 0.01 0.01 0.01 0.02 0.03 0.04 0.03 0.05 0.09 0.09 0.16 0.36 0.52 0.75 0.85 0.74 0.70 0.72 0.72 0.98 1.29 1.42 1.51 1.62 1.86 2.20 2.56 2.81 2.99 3.05 2.99 3.15 3.27 2.99 2.75 2.32 2.19 2.17 2.06 2.01 2.11 2.16
0.01 0.01 0.01 0.03 0.03 0.03 0.03 0.03 0.03 0.04 0.07 0.10 0.16 0.45 0.79 1.03 0.96 0.78 0.77 0.82 0.98 1.11 1.14 1.24 1.35 1.58 1.94 2.28 2.64 2.96 2.95 2.92 2.88 2.99 3.05 2.88 2.60 2.32 2.22 2.24 2.03 1.89 1.87 1.93
0.04 0.02 0.02 0.02 0.03 0.03 0.04 0.03 0.03 0.05 0.06 0.08 0.18 0.43 0.87 1.09 0.96 0.77 0.78 0.94 1.12 1.11 1.05 1.17 1.30 1.51 1.71 2.02 2.32 2.59 2.78 2.82 2.75 2.72 2.68 2.64 2.44 2.19 2.06 2.00 1.88 1.83 1.86 1.79
0.07 0.05 0.04 0.03 0.03 0.03 0.04 0.04 0.05 0.08 0.10 0.17 0.22 0.36 0.73 0.99 0.91 0.74 0.75 0.88 1.03 1.19 1.21 1.24 1.44 1.56 1.64 1.83 2.10 2.27 2.40 2.44 2.40 2.32 2.28 2.29 2.22 2.17 2.02 1.87 1.88 1.92 1.85 1.73
0.14 0.14 0.09 0.07 0.05 0.04 0.04 0.05 0.13 0.27 0.44 0.45 0.36 0.48 0.82 0.80 0.69 0.63 0.67 0.84 1.06 1.27 1.29 1.38 1.54 1.63 1.69 1.72 1.77 1.83 1.87 1.92 1.86 1.78 1.74 1.77 1.79 1.81 1.74 1.72 1.78 1.83 1.76 1.67
0.22 0.19 0.14 0.12 0.10 0.07 0.07 0.10 0.24 0.25 0.27 0.35 0.44 0.68 0.81 0.67 0.58 0.58 0.61 0.74 0.98 1.10 1.16 1.27 1.35 1.27 1.21 1.23 1.28 1.31 1.32 1.33 1.30 1.33 1.36 1.39 1.49 1.53 1.52 1.63 1.65 1.69 1.67 1.62
0.11 0.11 0.11 0.12 0.12 0.12 0.16 0.20 0.18 0.27 0.23 0.31 0.46 0.66 0.68 0.58 0.68 0.72 0.75 0.80 0.84 0.84 0.81 0.84 0.86 0.89 0.95 0.97 0.97 0.97 1.01 1.02 0.97 0.96 1.06 1.13 1.20 1.27 1.29 1.39 1.42 1.41 1.40 1.34
0.04 0.06 0.08 0.07 0.08 0.11 0.17 0.27 0.37 0.52 0.52 0.46 0.43 0.68 0.89 0.91 0.93 0.89 1.00 1.19 1.03 0.74 0.62 0.59 0.59 0.63 0.67 0.70 0.75 0.79 0.88 0.97 0.95 0.88 0.88 0.90 0.95 0.99 1.09 1.16 1.18 1.22 1.25 1.22
0.03 0.05 0.09 0.10 0.10 0.15 0.25 0.32 0.42 0.53 0.56 0.55 0.53 0.68 0.63 0.90 0.97 0.97 0.99 1.00 0.83 0.54 0.38 0.33 0.34 0.38 0.46 0.59 0.67 0.69 0.80 0.88 0.84 0.74 0.73 0.77 0.79 0.83 0.88 0.95 0.96 1.02 1.08 1.15
0.03 0.04 0.08 0.12 0.11 0.11 0.20 0.32 0.43 0.54 0.54 0.55 0.58 0.70 0.49 0.64 0.70 0.70 0.73 0.57 0.44 0.31 0.23 0.21 0.21 0.25 0.33 0.42 0.47 0.55 0.64 0.74 0.76 0.72 0.72 0.75 0.78 0.78 0.78 0.80 0.79 0.81 0.86 0.89
0.01 0.03 0.10 0.23 0.25 0.16 0.16 0.19 0.26 0.36 0.44 0.46 0.57 0.73 0.49 0.46 0.52 0.50 0.43 0.36 0.27 0.22 0.17 0.16 0.17 0.21 0.24 0.29 0.36 0.43 0.48 0.56 0.64 0.66 0.71 0.77 0.76 0.74 0.77 0.80 0.80 0.79 0.78 0.80
0.01 0.02 0.04 0.13 0.16 0.11 0.14 0.19 0.24 0.30 0.40 0.38 0.40 0.56 0.54 0.46 0.41 0.37 0.30 0.24 0.21 0.17 0.16 0.14 0.15 0.16 0.16 0.19 0.26 0.31 0.34 0.41 0.49 0.57 0.72 0.84 0.89 0.90 0.90 0.85 0.86 0.84 0.80 0.81
0.01 0.02 0.03 0.04 0.05 0.07 0.11 0.15 0.19 0.26 0.29 0.36 0.33 0.41 0.46 0.39 0.33 0.27 0.23 0.21 0.22 0.20 0.15 0.12 0.11 0.10 0.11 0.14 0.17 0.25 0.32 0.37 0.43 0.58 0.79 0.90 0.88 0.83 0.82 0.81 0.88 0.85 0.77 0.75
0.01 0.02 0.04 0.08 0.11 0.14 0.18 0.21 0.19 0.17 0.16 0.17 0.23 0.33 0.29 0.27 0.26 0.26 0.24 0.21 0.19 0.16 0.13 0.11 0.10 0.09 0.08 0.08 0.10 0.17 0.27 0.34 0.43 0.55 0.66 0.70 0.74 0.77 0.73 0.68 0.67 0.69 0.71 0.71
0.01 0.02 0.03 0.07 0.16 0.20 0.28 0.25 0.26 0.27 0.21 0.22 0.34 0.36 0.26 0.23 0.19 0.16 0.14 0.13 0.13 0.11 0.09 0.08 0.08 0.08 0.07 0.07 0.10 0.16 0.23 0.28 0.40 0.48 0.52 0.60 0.71 0.74 0.67 0.58 0.61 0.68 0.69 0.68
0.02 0.01 0.03 0.06 0.19 0.35 0.27 0.08 0.07 0.11 0.14 0.15 0.20 0.20 0.17 0.15 0.11 0.09 0.07 0.07 0.07 0.06 0.06 0.06 0.06 0.06 0.05 0.07 0.11 0.16 0.22 0.28 0.38 0.49 0.56 0.62 0.73 0.73 0.69 0.66 0.65 0.65 0.66 0.65
0.01 0.01 0.03 0.06 0.13 0.22 0.13 0.05 0.04 0.07 0.09 0.04 0.07 0.08 0.08 0.06 0.07 0.10 0.06 0.03 0.03 0.03 0.04 0.04 0.04 0.05 0.08 0.11 0.13 0.18 0.26 0.31 0.39 0.50 0.61 0.71 0.80 0.79 0.74 0.72 0.69 0.67 0.65 0.60
0.02 0.01 0.01 0.04 0.11 0.17 0.09 0.04 0.06 0.08 0.21 0.11 0.08 0.07 0.06 0.06 0.13 0.16 0.05 0.01 0.01 0.03 0.08 0.08 0.07 0.10 0.16 0.17 0.18 0.25 0.32 0.40 0.51 0.60 0.69 0.75 0.80 0.83 0.80 0.79 0.76 0.71 0.70 0.63
0.01 0.01 0.02 0.03 0.08 0.10 0.03 0.05 0.07 0.17 0.25 0.06 0.02 0.02 0.02 0.06 0.11 0.08 0.02 0.01 0.01 0.03 0.08 0.12 0.16 0.23 0.25 0.23 0.28 0.36 0.41 0.49 0.55 0.64 0.72 0.80 0.88 0.86 0.82 0.85 0.86 0.83 0.80 0.78
0.02 0.01 0.02 0.04 0.10 0.13 0.03 0.02 0.04 0.06 0.03 0.02 0.02 0.02 0.02 0.02 0.02 0.03 0.02 0.02 0.03 0.04 0.08 0.15 0.26 0.31 0.29 0.32 0.46 0.54 0.56 0.55 0.58 0.68 0.77 0.88 0.95 0.80 0.75 0.90 0.92 0.91 0.92 0.92
0.01 0.02 0.02 0.03 0.05 0.02 0.01 0.01 0.02 0.02 0.02 0.02 0.02 0.01 0.02 0.02 0.02 0.03 0.02 0.03 0.07 0.09 0.11 0.14 0.23 0.29 0.32 0.42 0.59 0.75 0.76 0.68 0.69 0.77 0.87 0.91 0.93 0.97 0.99 0.97 0.97 0.99 0.97 0.99
0.01 0.01 0.02 0.03 0.02 0.01 0.01 0.01 0.01 0.01 0.01 0.01 0.01 0.01 0.01 0.02 0.02 0.02 0.02 0.04 0.07 0.11 0.12 0.14 0.20 0.29 0.39 0.48 0.64 0.78 0.81 0.80 0.83 0.88 0.93 0.97 1.00 1.02 1.07 1.13 1.11 1.08 1.03 1.04
0.00 0.00 0.02 0.05 0.03 0.02 0.02 0.01 0.01 0.00 0.01 0.01 0.01 0.01 0.01 0.02 0.03 0.03 0.04 0.05 0.06 0.09 0.10 0.14 0.23 0.35 0.42 0.49 0.60 0.69 0.74 0.85 0.95 0.98 1.01 1.04 1.07 1.10 1.13 1.15 1.10 1.03 1.00 0.90
0.01 0.01 0.03 0.05 0.03 0.03 0.03 0.01 0.00 0.00 0.01 0.01 0.01 0.01 0.02 0.02 0.03 0.04 0.05 0.06 0.07 0.09 0.12 0.17 0.24 0.32 0.38 0.46 0.56 0.65 0.77 0.91 1.06 1.09 1.03 1.02 1.01 1.05 1.10 1.10 0.96 0.74 0.67 0.60

GEFSCGP_prec_meanprecacc_114.txt.gz
Total_Precipitation_Accumulation
0.00 0.00 0.01 0.00 0.00 0.00 0.01 0.02 0.02 0.03 0.05 0.07 0.10 0.18 0.39 0.55 0.62 0.66 0.83 1.05 1.26 1.39 1.45 1.55 1.70 1.87 1.96 1.99 2.12 2.23 2.52 2.91 3.10 3.07 3.05 3.01 2.69 2.40 2.08 1.85 1.85 1.93 1.96 2.11
0.01 0.01 0.01 0.01 0.01 0.02 0.03 0.04 0.03 0.04 0.07 0.13 0.20 0.28 0.46 0.70 0.76 0.72 0.71 0.82 0.98 1.35 1.57 1.72 1.87 1.97 1.93 2.04 2.28 2.56 2.85 3.15 3.04 3.18 3.38 3.31 3.07 2.49 2.13 1.94 1.90 1.96 2.00 2.07
0.02 0.02 0.01 0.01 0.01 0.02 0.04 0.04 0.03 0.06 0.11 0.11 0.18 0.39 0.54 0.76 0.88 0.78 0.74 0.76 0.75 1.00 1.30 1.43 1.51 1.63 1.87 2.20 2.56 2.81 3.00 3.05 3.00 3.15 3.28 3.00 2.76 2.33 2.20 2.18 2.07 2.03 2.14 2.19
0.01 0.01 0.01 0.03 0.03 0.03 0.04 0.04 0.03 0.05 0.09 0.12 0.17 0.49 0.81 1.04 0.98 0.80 0.79 0.84 1.00 1.13 1.15 1.25 1.36 1.59 1.95 2.28 2.65 2.97 2.96 2.93 2.88 2.99 3.06 2.90 2.61 2.33 2.22 2.24 2.04 1.90 1.89 1.95
0.04 0.02 0.02 0.02 0.03 0.03 0.04 0.03 0.03 0.05 0.06 0.09 0.19 0.46 0.89 1.10 0.97 0.79 0.79 0.95 1.13 1.12 1.06 1.17 1.31 1.51 1.71 2.02 2.33 2.59 2.78 2.82 2.75 2.72 2.68 2.65 2.45 2.20 2.06 2.00 1.88 1.84 1.86 1.79
0.07 0.05 0.04 0.03 0.04 0.03 0.04 0.04 0.05 0.08 0.11 0.19 0.23 0.37 0.75 1.00 0.92 0.75 0.76 0.89 1.03 1.19 1.21 1.25 1.44 1.56 1.64 1.83 2.10 2.27 2.40 2.45 2.40 2.32 2.28 2.30 2.23 2.18 2.03 1.87 1.88 1.92 1.85 1.73
0.14 0.14 0.09 0.07 0.05 0.04 0.04 0.05 0.14 0.29 0.46 0.47 0.37 0.49 0.83 0.80 0.69 0.63 0.67 0.84 1.06 1.27 1.29 1.38 1.54 1.63 1.69 1.72 1.77 1.83 1.87 1.92 1.86 1.78 1.74 1.77 1.79 1.81 1.74 1.72 1.79 1.83 1.76 1.68
0.22 0.19 0.14 0.12 0.10 0.08 0.07 0.10 0.25 0.27 0.28 0.36 0.44 0.69 0.82 0.67 0.58 0.58 0.61 0.74 0.98 1.10 1.16 1.27 1.35 1.27 1.21 1.23 1.28 1.31 1.32 1.33 1.30 1.33 1.36 1.39 1.49 1.53 1.52 1.64 1.65 1.69 1.67 1.62
0.11 0.11 0.11 0.12 0.12 0.12 0.16 0.20 0.18 0.27 0.23 0.31 0.46 0.66 0.68 0.58 0.68 0.72 0.75 0.80 0.84 0.84 0.81 0.84 0.86 0.89 0.95 0.97 0.97 0.97 1.01 1.02 0.97 0.96 1.06 1.14 1.20 1.27 1.29 1.40 1.43 1.41 1.40 1.34
0.04 0.06 0.08 0.07 0.08 0.11 0.17 0.27 0.37 0.52 0.53 0.47 0.43 0.68 0.89 0.91 0.93 0.89 1.00 1.19 1.03 0.74 0.62 0.59 0.59 0.63 0.67 0.70 0.75 0.79 0.88 0.97 0.95 0.88 0.88 0.90 0.95 0.99 1.10 1.16 1.18 1.22 1.25 1.23
0.03 0.05 0.09 0.10 0.10 0.15 0.25 0.32 0.42 0.53 0.56 0.55 0.53 0.68 0.63 0.90 0.97 0.97 0.99 1.00 0.83 0.54 0.38 0.33 0.34 0.38 0.46 0.59 0.67 0.69 0.80 0.88 0.84 0.74 0.73 0.77 0.79 0.83 0.88 0.95 0.97 1.02 1.08 1.15
0.03 0.04 0.08 0.12 0.11 0.11 0.20 0.32 0.43 0.54 0.54 0.55 0.58 0.70 0.49 0.64 0.70 0.70 0.73 0.57 0.44 0.31 0.23 0.21 0.21 0.25 0.33 0.42 0.47 0.55 0.64 0.74 0.76 0.72 0.72 0.75 0.78 0.78 0.78 0.80 0.80 0.81 0.87 0.90
0.01 0.03 0.10 0.23 0.25 0.16 0.16 0.19 0.26 0.36 0.44 0.46 0.57 0.73 0.49 0.46 0.52 0.50 0.43 0.36 0.27 0.22 0.17 0.16 0.17 0.21 0.24 0.29 0.36 0.43 0.48 0.56 0.64 0.66 0.71 0.77 0.76 0.74 0.77 0.81 0.81 0.79 0.79 0.80
0.01 0.02 0.04 0.13 0.16 0.11 0.14 0.19 0.24 0.30 0.40 0.38 0.40 0.56 0.54 0.46 0.41 0.37 0.30 0.24 0.21 0.17 0.16 0.14 0.15 0.16 0.16 0.19 0.26 0.31 0.34 0.41 0.49 0.57 0.72 0.84 0.90 0.90 0.91 0.86 0.87 0.85 0.81 0.82
0.01 0.02 0.03 0.04 0.05 0.07 0.11 0.15 0.19 0.26 0.29 0.36 0.33 0.41 0.46 0.39 0.33 0.27 0.23 0.21 0.22 0.20 0.15 0.12 0.11 0.10 0.11 0.14 0.17 0.25 0.32 0.37 0.43 0.58 0.80 0.90 0.89 0.84 0.83 0.81 0.88 0.86 0.78 0.76
0.01 0.02 0.04 0.08 0.11 0.14 0.18 0.21 0.19 0.17 0.16 0.17 0.23 0.33 0.29 0.27 0.26 0.26 0.24 0.21 0.19 0.16 0.13 0.11 0.10 0.09 0.08 0.08 0.10 0.17 0.27 0.34 0.43 0.55 0.66 0.70 0.75 0.78 0.74 0.69 0.67 0.69 0.72 0.71
0.02 0.02 0.03 0.07 0.16 0.20 0.28 0.25 0.26 0.27 0.21 0.22 0.34 0.36 0.26 0.23 0.19 0.16 0.14 0.13 0.13 0.11 0.09 0.08 0.08 0.08 0.07 0.07 0.10 0.16 0.23 0.28 0.40 0.48 0.53 0.60 0.71 0.74 0.67 0.58 0.62 0.68 0.70 0.69
0.02 0.01 0.03 0.06 0.19 0.35 0.27 0.08 0.07 0.11 0.14 0.15 0.20 0.20 0.17 0.15 0.11 0.09 0.07 0.07 0.07 0.06 0.06 0.06 0.06 0.06 0.05 0.07 0.11 0.16 0.22 0.28 0.38 0.49 0.56 0.62 0.73 0.73 0.69 0.66 0.65 0.66 0.66 0.66
0.01 0.01 0.03 0.06 0.13 0.22 0.13 0.05 0.04 0.07 0.09 0.04 0.07 0.08 0.08 0.06 0.07 0.10 0.06 0.03 0.03 0.03 0.04 0.04 0.04 0.05 0.08 0.11 0.13 0.18 0.26 0.31 0.39 0.50 0.61 0.71 0.80 0.79 0.75 0.72 0.69 0.67 0.65 0.61
0.02 0.02 0.02 0.04 0.11 0.17 0.09 0.04 0.06 0.08 0.21 0.11 0.08 0.07 0.06 0.06 0.13 0.16 0.05 0.01 0.01 0.03 0.08 0.08 0.07 0.10 0.16 0.17 0.18 0.25 0.32 0.41 0.52 0.60 0.69 0.75 0.80 0.84 0.81 0.79 0.76 0.72 0.71 0.64
0.01 0.02 0.02 0.03 0.08 0.10 0.03 0.05 0.07 0.17 0.25 0.06 0.02 0.02 0.02 0.06 0.11 0.08 0.02 0.01 0.01 0.03 0.08 0.12 0.16 0.23 0.25 0.23 0.28 0.36 0.41 0.49 0.55 0.64 0.72 0.80 0.88 0.86 0.83 0.85 0.86 0.84 0.80 0.79
0.02 0.02 0.02 0.04 0.10 0.13 0.03 0.02 0.04 0.06 0.03 0.02 0.02 0.02 0.02 0.02 0.02 0.03 0.02 0.02 0.03 0.04 0.08 0.15 0.26 0.31 0.29 0.32 0.46 0.54 0.56 0.55 0.58 0.68 0.77 0.88 0.95 0.80 0.75 0.90 0.93 0.92 0.93 0.93
0.02 0.02 0.02 0.04 0.05 0.03 0.01 0.01 0.02 0.02 0.02 0.02 0.02 0.01 0.02 0.02 0.02 0.03 0.02 0.03 0.07 0.09 0.11 0.14 0.23 0.29 0.32 0.42 0.59 0.75 0.76 0.68 0.69 0.77 0.87 0.91 0.93 0.97 1.00 0.97 0.98 1.00 0.98 1.00
0.01 0.01 0.02 0.03 0.03 0.02 0.01 0.01 0.01 0.01 0.01 0.01 0.01 0.01 0.01 0.02 0.02 0.02 0.02 0.04 0.07 0.11 0.12 0.14 0.20 0.29 0.39 0.48 0.64 0.78 0.81 0.80 0.83 0.88 0.93 0.97 1.00 1.02 1.07 1.13 1.11 1.08 1.03 1.05
0.00 0.00 0.02 0.05 0.04 0.02 0.02 0.01 0.01 0.00 0.01 0.01 0.01 0.01 0.01 0.02 0.03 0.03 0.04 0.05 0.06 0.09 0.10 0.14 0.23 0.35 0.42 0.49 0.60 0.69 0.74 0.85 0.95 0.98 1.01 1.05 1.07 1.10 1.14 1.15 1.10 1.03 1.00 0.90
0.01 0.01 0.03 0.05 0.03 0.03 0.03 0.01 0.00 0.00 0.01 0.01 0.01 0.01 0.02 0.02 0.03 0.04 0.05 0.06 0.07 0.09 0.12 0.17 0.24 0.32 0.38 0.46 0.56 0.65 0.77 0.91 1.06 1.10 1.03 1.02 1.01 1.05 1.10 1.10 0.96 0.74 0.67 0.60

GEFSCGP_prec_meanprecacc_120.txt.gz
Total_Precipitation_Accumulation
0.00 0.00 0.01 0.01 0.01 0.01 0.01 0.04 0.06 0.06 0.08 0.14 0.21 0.25 0.42 0.57 0.65 0.71 0.87 1.10 1.29 1.42 1.49 1.58 1.73 1.90 1.98 2.00 2.14 2.25 2.54 2.93 3.13 3.10 3.09 3.04 2.73 2.45 2.13 1.90 1.90 1.98 2.02 2.17
0.01 0.01 0.01 0.01 0.01 0.02 0.03 0.06 0.08 0.08 0.10 0.14 0.24 0.32 0.49 0.71 0.79 0.79 0.78 0.88 1.01 1.37 1.59 1.74 1.89 1.98 1.95 2.05 2.29 2.57 2.87 3.18 3.07 3.20 3.40 3.34 3.09 2.51 2.16 1.96 1.93 1.98 2.02 2.09
0.02 0.02 0.01 0.01 0.01 0.03 0.05 0.05 0.06 0.08 0.12 0.13 0.21 0.46 0.60 0.81 0.91 0.83 0.80 0.79 0.77 1.03 1.32 1.44 1.52 1.64 1.88 2.21 2.59 2.84 3.03 3.09 3.03 3.17 3.30 3.02 2.79 2.35 2.22 2.21 2.10 2.05 2.17 2.21
0.02 0.01 0.01 0.03 0.03 0.04 0.06 0.05 0.03 0.05 0.13 0.21 0.28 0.66 0.97 1.16 1.02 0.83 0.83 0.88 1.02 1.14 1.17 1.26 1.37 1.61 1.96 2.29 2.65 2.99 2.98 2.95 2.90 3.00 3.08 2.92 2.64 2.36 2.25 2.28 2.07 1.93 1.91 1.97
0.04 0.02 0.02 0.02 0.03 0.03 0.04 0.04 0.03 0.06 0.09 0.20 0.31 0.59 1.03 1.16 1.02 0.83 0.81 0.96 1.14 1.12 1.06 1.18 1.32 1.52 1.71 2.02 2.33 2.61 2.80 2.83 2.76 2.72 2.69 2.66 2.46 2.21 2.08 2.02 1.90 1.85 1.87 1.80
0.07 0.05 0.04 0.03 0.04 0.03 0.04 0.04 0.07 0.12 0.22 0.39 0.32 0.43 0.84 1.07 0.96 0.80 0.79 0.89 1.03 1.19 1.21 1.25 1.44 1.57 1.64 1.83 2.10 2.27 2.40 2.45 2.41 2.32 2.28 2.30 2.24 2.18 2.03 1.88 1.89 1.92 1.86 1.73
0.15 0.15 0.10 0.07 0.05 0.04 0.04 0.11 0.29 0.49 0.65 0.60 0.40 0.52 0.89 0.82 0.70 0.63 0.68 0.84 1.06 1.27 1.29 1.38 1.54 1.63 1.69 1.72 1.77 1.83 1.87 1.92 1.86 1.78 1.74 1.78 1.80 1.82 1.75 1.73 1.79 1.83 1.76 1.68
0.23 0.22 0.15 0.12 0.10 0.08 0.07 0.15 0.37 0.37 0.41 0.45 0.47 0.72 0.85 0.69 0.58 0.58 0.61 0.74 0.98 1.10 1.16 1.27 1.35 1.27 1.21 1.23 1.28 1.31 1.32 1.34 1.31 1.33 1.36 1.40 1.49 1.54 1.53 1.64 1.65 1.70 1.68 1.63
0.12 0.13 0.11 0.12 0.12 0.12 0.16 0.21 0.19 0.29 0.26 0.35 0.49 0.69 0.70 0.58 0.68 0.72 0.75 0.80 0.84 0.84 0.81 0.84 0.86 0.89 0.95 0.97 0.97 0.97 1.01 1.02 0.97 0.97 1.06 1.14 1.20 1.28 1.30 1.40 1.43 1.41 1.41 1.34
0.04 0.06 0.09 0.07 0.08 0.11 0.17 0.27 0.37 0.53 0.55 0.51 0.48 0.72 0.94 0.95 0.93 0.89 1.00 1.19 1.03 0.74 0.62 0.59 0.59 0.63 0.67 0.70 0.75 0.79 0.88 0.97 0.95 0.88 0.88 0.90 0.95 1.00 1.10 1.17 1.19 1.23 1.26 1.23
0.03 0.05 0.09 0.10 0.10 0.15 0.26 0.33 0.42 0.53 0.56 0.57 0.58 0.72 0.65 0.91 0.97 0.97 0.99 1.00 0.83 0.54 0.38 0.33 0.34 0.38 0.46 0.59 0.67 0.69 0.80 0.88 0.84 0.74 0.73 0.77 0.79 0.83 0.89 0.96 0.98 1.03 1.09 1.16
0.03 0.04 0.09 0.13 0.12 0.12 0.20 0.33 0.43 0.54 0.54 0.55 0.58 0.71 0.49 0.65 0.70 0.70 0.73 0.57 0.44 0.31 0.23 0.21 0.21 0.25 0.33 0.42 0.47 0.55 0.64 0.74 0.76 0.72 0.72 0.76 0.79 0.79 0.79 0.82 0.81 0.82 0.88 0.91
0.01 0.03 0.11 0.27 0.29 0.19 0.17 0.19 0.26 0.36 0.44 0.46 0.58 0.73 0.50 0.46 0.52 0.50 0.43 0.36 0.27 0.22 0.17 0.16 0.17 0.21 0.24 0.29 0.36 0.43 0.48 0.56 0.64 0.66 0.71 0.77 0.77 0.75 0.79 0.82 0.82 0.80 0.80 0.82
0.01 0.02 0.05 0.21 0.25 0.15 0.15 0.20 0.24 0.30 0.40 0.38 0.40 0.56 0.54 0.46 0.41 0.37 0.30 0.24 0.21 0.17 0.16 0.14 0.15 0.16 0.16 0.19 0.26 0.31 0.34 0.41 0.49 0.57 0.72 0.85 0.91 0.91 0.92 0.88 0.88 0.86 0.82 0.84
0.01 0.02 0.03 0.05 0.06 0.08 0.11 0.15 0.20 0.26 0.29 0.36 0.34 0.41 0.46 0.39 0.33 0.27 0.23 0.21 0.22 0.20 0.15 0.12 0.11 0.10 0.11 0.14 0.17 0.25 0.33 0.37 0.44 0.59 0.80 0.91 0.90 0.85 0.84 0.83 0.89 0.87 0.79 0.77
0.01 0.02 0.04 0.08 0.11 0.14 0.18 0.22 0.19 0.17 0.16 0.17 0.23 0.33 0.29 0.27 0.26 0.26 0.24 0.21 0.19 0.16 0.13 0.11 0.10 0.09 0.08 0.08 0.10 0.17 0.27 0.34 0.43 0.55 0.67 0.71 0.76 0.78 0.75 0.70 0.68 0.71 0.73 0.73
0.02 0.02 0.04 0.07 0.16 0.20 0.28 0.25 0.26 0.27 0.21 0.22 0.34 0.36 0.26 0.23 0.19 0.16 0.14 0.13 0.13 0.11 0.09 0.08 0.08 0.08 0.07 0.07 0.10 0.16 0.23 0.29 0.40 0.48 0.53 0.61 0.72 0.74 0.68 0.59 0.63 0.70 0.72 0.71
0.02 0.01 0.03 0.07 0.19 0.36 0.28 0.08 0.07 0.11 0.14 0.15 0.20 0.20 0.17 0.15 0.11 0.09 0.07 0.07 0.07 0.06 0.06 0.06 0.06 0.06 0.05 0.07 0.12 0.16 0.22 0.28 0.39 0.49 0.57 0.62 0.73 0.74 0.69 0.67 0.67 0.68 0.68 0.68
0.02 0.01 0.03 0.06 0.13 0.22 0.14 0.05 0.04 0.07 0.09 0.04 0.07 0.08 0.08 0.06 0.07 0.10 0.06 0.03 0.03 0.03 0.04 0.04 0.04 0.05 0.08 0.11 0.13 0.18 0.26 0.31 0.39 0.50 0.62 0.72 0.80 0.80 0.75 0.73 0.71 0.69 0.67 0.63
0.02 0.02 0.02 0.04 0.11 0.18 0.10 0.05 0.06 0.08 0.21 0.11 0.08 0.07 0.06 0.06 0.13 0.16 0.05 0.01 0.01 0.03 0.08 0.08 0.07 0.10 0.16 0.17 0.18 0.25 0.32 0.41 0.52 0.60 0.69 0.76 0.81 0.84 0.81 0.80 0.78 0.74 0.73 0.66
0.02 0.02 0.02 0.03 0.08 0.10 0.04 0.06 0.07 0.17 0.25 0.06 0.02 0.02 0.02 0.06 0.11 0.08 0.02 0.01 0.01 0.03 0.08 0.12 0.16 0.23 0.25 0.23 0.28 0.36 0.41 0.49 0.55 0.64 0.72 0.81 0.89 0.86 0.83 0.86 0.88 0.86 0.82 0.82
0.02 0.02 0.03 0.05 0.11 0.14 0.05 0.04 0.05 0.07 0.04 0.02 0.02 0.02 0.02 0.02 0.02 0.03 0.02 0.02 0.03 0.04 0.08 0.15 0.26 0.31 0.29 0.32 0.46 0.54 0.56 0.55 0.58 0.69 0.77 0.89 0.96 0.81 0.75 0.91 0.95 0.94 0.95 0.95
0.02 0.03 0.04 0.08 0.10 0.05 0.03 0.04 0.04 0.03 0.03 0.02 0.02 0.01 0.02 0.02 0.02 0.03 0.02 0.03 0.07 0.09 0.11 0.14 0.23 0.29 0.32 0.42 0.59 0.75 0.76 0.69 0.69 0.77 0.87 0.91 0.94 0.98 1.00 0.98 0.99 1.01 1.00 1.01
0.02 0.03 0.04 0.09 0.10 0.05 0.03 0.03 0.02 0.02 0.02 0.01 0.01 0.01 0.01 0.02 0.02 0.02 0.02 0.04 0.07 0.11 0.12 0.14 0.20 0.29 0.39 0.48 0.64 0.78 0.81 0.80 0.83 0.88 0.94 0.98 1.01 1.02 1.07 1.14 1.12 1.08 1.04 1.06
0.02 0.02 0.03 0.07 0.06 0.04 0.02 0.02 0.01 0.02 0.02 0.01 0.01 0.01 0.01 0.02 0.03 0.03 0.04 0.05 0.06 0.09 0.10 0.14 0.23 0.35 0.42 0.49 0.60 0.69 0.74 0.85 0.95 0.98 1.01 1.05 1.07 1.10 1.14 1.16 1.11 1.03 1.00 0.90
0.02 0.04 0.05 0.05 0.04 0.04 0.03 0.02 0.01 0.01 0.01 0.01 0.01 0.01 0.02 0.03 0.03 0.04 0.05 0.06 0.07 0.09 0.12 0.17 0.24 0.32 0.38 0.46 0.56 0.65 0.77 0.91 1.07 1.10 1.03 1.02 1.01 1.05 1.10 1.10 0.96 0.74 0.67 0.60

GEFSCGP_prec_meanprecacc_126.txt.gz
Total_Precipitation_Accumulation
0.00 0.01 0.01 0.01 0.01 0.01 0.02 0.07 0.10 0.12 0.18 0.19 0.27 0.32 0.53 0.71 0.78 0.84 1.01 1.21 1.37 1.48 1.54 1.63 1.76 1.92 2.00 2.04 2.19 2.30 2.59 2.98 3.16 3.12 3.10 3.06 2.74 2.46 2.14 1.91 1.91 2.00 2.04 2.20
0.01 0.02 0.01 0.01 0.01 0.02 0.04 0.09 0.12 0.15 0.22 0.20 0.32 0.42 0.60 0.91 0.98 0.95 0.96 1.00 1.06 1.41 1.63 1.77 1.92 2.00 1.96 2.08 2.30 2.58 2.89 3.20 3.11 3.24 3.41 3.34 3.10 2.52 2.17 1.97 1.94 1.99 2.04 2.11
0.02 0.02 0.01 0.01 0.02 0.04 0.06 0.08 0.12 0.17 0.27 0.23 0.32 0.58 0.74 0.97 1.11 0.99 0.92 0.88 0.83 1.06 1.35 1.46 1.54 1.65 1.89 2.22 2.59 2.85 3.04 3.11 3.08 3.21 3.30 3.03 2.79 2.36 2.22 2.21 2.11 2.05 2.17 2.22
0.02 0.02 0.02 0.03 0.04 0.05 0.07 0.06 0.07 0.12 0.21 0.31 0.39 0.80 1.09 1.27 1.14 0.94 0.95 1.00 1.08 1.18 1.19 1.28 1.39 1.63 1.97 2.29 2.66 2.99 2.99 2.96 2.91 3.01 3.08 2.92 2.64 2.36 2.26 2.28 2.08 1.93 1.91 1.98
0.05 0.03 0.02 0.03 0.04 0.04 0.05 0.05 0.05 0.11 0.18 0.30 0.42 0.73 1.13 1.23 1.08 0.88 0.86 1.02 1.21 1.15 1.08 1.20 1.34 1.54 1.72 2.03 2.33 2.61 2.80 2.84 2.76 2.72 2.69 2.66 2.46 2.21 2.08 2.02 1.90 1.85 1.88 1.80
0.07 0.06 0.05 0.04 0.04 0.03 0.04 0.05 0.08 0.16 0.29 0.49 0.38 0.50 0.90 1.11 0.99 0.82 0.81 0.92 1.07 1.23 1.23 1.27 1.46 1.58 1.65 1.84 2.10 2.27 2.40 2.45 2.41 2.32 2.28 2.30 2.24 2.18 2.03 1.88 1.89 1.92 1.86 1.74
0.16 0.16 0.11 0.08 0.06 0.04 0.05 0.12 0.31 0.53 0.75 0.68 0.45 0.57 0.93 0.86 0.72 0.65 0.69 0.87 1.08 1.30 1.31 1.39 1.55 1.64 1.69 1.72 1.77 1.83 1.87 1.92 1.86 1.78 1.74 1.78 1.80 1.82 1.75 1.73 1.79 1.83 1.76 1.68
0.24 0.23 0.16 0.13 0.10 0.08 0.08 0.16 0.39 0.42 0.50 0.52 0.55 0.79 0.89 0.72 0.60 0.59 0.62 0.75 0.99 1.11 1.17 1.28 1.35 1.27 1.21 1.23 1.28 1.31 1.32 1.34 1.31 1.33 1.37 1.40 1.49 1.54 1.53 1.64 1.65 1.70 1.68 1.63
0.13 0.13 0.12 0.12 0.13 0.13 0.16 0.22 0.20 0.32 0.34 0.51 0.66 0.79 0.77 0.60 0.69 0.74 0.76 0.81 0.84 0.84 0.82 0.84 0.86 0.89 0.95 0.97 0.97 0.97 1.01 1.02 0.97 0.97 1.06 1.14 1.20 1.28 1.30 1.40 1.43 1.41 1.41 1.34
0.05 0.07 0.09 0.08 0.09 0.12 0.18 0.28 0.38 0.55 0.62 0.62 0.63 0.86 1.00 0.98 0.96 0.90 1.00 1.19 1.03 0.74 0.62 0.59 0.59 0.63 0.67 0.70 0.75 0.79 0.88 0.97 0.95 0.88 0.88 0.90 0.95 1.00 1.10 1.17 1.19 1.23 1.26 1.23
0.03 0.06 0.10 0.11 0.11 0.17 0.27 0.35 0.44 0.55 0.59 0.61 0.66 0.79 0.67 0.93 0.99 0.98 1.00 1.00 0.83 0.54 0.38 0.33 0.34 0.38 0.46 0.59 0.67 0.69 0.80 0.88 0.84 0.74 0.73 0.77 0.80 0.83 0.89 0.96 0.98 1.03 1.09 1.16
0.03 0.04 0.09 0.14 0.13 0.13 0.22 0.34 0.44 0.55 0.56 0.57 0.61 0.74 0.51 0.65 0.70 0.71 0.73 0.57 0.44 0.31 0.23 0.21 0.21 0.25 0.33 0.42 0.47 0.55 0.64 0.74 0.76 0.72 0.72 0.76 0.79 0.79 0.79 0.82 0.81 0.82 0.88 0.91
0.02 0.04 0.11 0.28 0.30 0.20 0.17 0.19 0.27 0.37 0.44 0.46 0.59 0.74 0.50 0.46 0.52 0.50 0.44 0.36 0.27 0.22 0.17 0.16 0.17 0.21 0.24 0.29 0.36 0.43 0.48 0.56 0.64 0.66 0.71 0.77 0.77 0.75 0.79 0.82 0.82 0.80 0.80 0.82
0.02 0.02 0.06 0.22 0.26 0.16 0.16 0.20 0.25 0.30 0.40 0.39 0.41 0.58 0.55 0.47 0.41 0.37 0.30 0.24 0.21 0.17 0.16 0.14 0.15 0.16 0.16 0.19 0.26 0.31 0.35 0.41 0.49 0.57 0.72 0.85 0.91 0.92 0.92 0.88 0.88 0.86 0.82 0.84
0.02 0.03 0.04 0.06 0.07 0.09 0.12 0.16 0.21 0.27 0.30 0.37 0.34 0.42 0.46 0.40 0.33 0.27 0.23 0.22 0.22 0.20 0.15 0.12 0.11 0.10 0.11 0.14 0.17 0.25 0.33 0.37 0.44 0.59 0.80 0.91 0.90 0.85 0.84 0.83 0.89 0.87 0.79 0.77
0.02 0.03 0.05 0.08 0.12 0.16 0.19 0.23 0.20 0.18 0.16 0.18 0.25 0.34 0.29 0.27 0.26 0.26 0.24 0.21 0.20 0.16 0.13 0.11 0.10 0.09 0.08 0.08 0.10 0.17 0.27 0.34 0.43 0.55 0.67 0.71 0.76 0.78 0.75 0.70 0.68 0.71 0.73 0.73
0.02 0.03 0.04 0.08 0.18 0.22 0.29 0.26 0.27 0.27 0.22 0.23 0.35 0.37 0.27 0.24 0.19 0.16 0.14 0.13 0.13 0.11 0.09 0.08 0.08 0.08 0.07 0.07 0.10 0.16 0.23 0.29 0.40 0.48 0.53 0.61 0.72 0.74 0.68 0.59 0.63 0.70 0.72 0.71
0.03 0.02 0.04 0.09 0.21 0.38 0.29 0.10 0.08 0.12 0.15 0.16 0.20 0.20 0.18 0.15 0.11 0.09 0.07 0.07 0.07 0.06 0.06 0.06 0.06 0.06 0.05 0.07 0.12 0.16 0.22 0.28 0.39 0.49 0.57 0.62 0.73 0.74 0.69 0.67 0.67 0.68 0.68 0.68
0.03 0.03 0.05 0.09 0.16 0.24 0.15 0.07 0.05 0.08 0.10 0.05 0.07 0.09 0.09 0.07 0.07 0.10 0.06 0.03 0.03 0.04 0.04 0.04 0.04 0.05 0.08 0.11 0.13 0.18 0.26 0.31 0.39 0.50 0.62 0.72 0.80 0.80 0.75 0.73 0.71 0.69 0.67 0.63
0.04 0.04 0.04 0.06 0.15 0.23 0.13 0.08 0.09 0.10 0.22 0.12 0.08 0.07 0.06 0.06 0.14 0.16 0.05 0.01 0.01 0.03 0.08 0.08 0.07 0.10 0.16 0.17 0.18 0.25 0.32 0.41 0.52 0.60 0.69 0.76 0.81 0.84 0.81 0.80 0.78 0.74 0.73 0.66
0.07 0.05 0.04 0.05 0.11 0.14 0.09 0.09 0.09 0.19 0.26 0.07 0.03 0.03 0.03 0.07 0.12 0.09 0.02 0.01 0.01 0.03 0.08 0.12 0.16 0.23 0.25 0.23 0.28 0.36 0.41 0.49 0.55 0.64 0.72 0.81 0.89 0.86 0.83 0.86 0.88 0.86 0.83 0.82
0.09 0.07 0.07 0.09 0.16 0.19 0.10 0.07 0.08 0.11 0.06 0.03 0.03 0.02 0.02 0.03 0.03 0.03 0.03 0.03 0.03 0.05 0.08 0.15 0.26 0.31 0.29 0.32 0.46 0.54 0.56 0.55 0.59 0.69 0.78 0.89 0.96 0.81 0.75 0.91 0.95 0.95 0.95 0.95
0.10 0.10 0.12 0.17 0.19 0.14 0.13 0.12 0.13 0.11 0.07 0.05 0.04 0.03 0.02 0.02 0.03 0.03 0.03 0.04 0.07 0.10 0.12 0.14 0.23 0.29 0.32 0.42 0.59 0.75 0.76 0.69 0.69 0.77 0.87 0.92 0.94 0.98 1.00 0.98 0.99 1.01 1.00 1.02
0.13 0.13 0.16 0.23 0.23 0.16 0.12 0.10 0.09 0.09 0.06 0.04 0.03 0.03 0.02 0.03 0.03 0.02 0.02 0.04 0.07 0.11 0.12 0.14 0.20 0.29 0.39 0.48 0.64 0.78 0.81 0.80 0.83 0.89 0.94 0.98 1.01 1.02 1.07 1.14 1.12 1.08 1.04 1.06
0.11 0.12 0.12 0.19 0.20 0.16 0.10 0.06 0.06 0.06 0.07 0.06 0.04 0.04 0.04 0.03 0.03 0.04 0.04 0.05 0.06 0.09 0.10 0.14 0.23 0.35 0.42 0.49 0.60 0.69 0.74 0.85 0.95 0.98 1.01 1.05 1.07 1.10 1.14 1.16 1.11 1.03 1.00 0.90
0.10 0.11 0.16 0.19 0.13 0.12 0.09 0.06 0.06 0.05 0.03 0.04 0.04 0.03 0.03 0.03 0.04 0.04 0.05 0.06 0.07 0.09 0.12 0.17 0.24 0.32 0.38 0.46 0.56 0.65 0.77 0.91 1.07 1.10 1.03 1.02 1.01 1.05 1.10 1.10 0.96 0.74 0.67 0.61

GEFSCGP_prec_meanprecacc_132.txt.gz
Total_Precipitation_Accumulation
0.00 0.01 0.01 0.01 0.01 0.01 0.03 0.08 0.11 0.13 0.18 0.19 0.28 0.34 0.56 0.75 0.83 0.90 1.06 1.26 1.41 1.52 1.58 1.69 1.84 1.99 2.06 2.10 2.25 2.41 2.71 3.07 3.20 3.15 3.13 3.08 2.76 2.48 2.15 1.92 1.93 2.01 2.05 2.22
0.01 0.03 0.01 0.01 0.01 0.03 0.05 0.10 0.13 0.16 0.22 0.20 0.33 0.43 0.62 0.94 1.02 0.99 1.01 1.04 1.09 1.43 1.65 1.80 1.96 2.04 2.01 2.12 2.34 2.61 2.90 3.22 3.14 3.27 3.46 3.37 3.10 2.52 2.17 1.98 1.94 1.99 2.04 2.12
0.03 0.02 0.01 0.01 0.02 0.04 0.06 0.08 0.13 0.17 0.27 0.24 0.33 0.60 0.76 1.00 1.14 1.01 0.95 0.92 0.85 1.08 1.37 1.50 1.58 1.68 1.93 2.26 2.62 2.86 3.05 3.11 3.09 3.22 3.32 3.04 2.79 2.36 2.23 2.21 2.11 2.05 2.17 2.22
0.02 0.02 0.02 0.03 0.04 0.05 0.07 0.07 0.08 0.13 0.22 0.32 0.40 0.81 1.10 1.28 1.16 0.95 0.97 1.02 1.11 1.19 1.21 1.30 1.42 1.66 2.00 2.32 2.68 3.00 2.99 2.96 2.91 3.01 3.08 2.92 2.64 2.36 2.26 2.28 2.08 1.93 1.91 1.98
0.05 0.03 0.03 0.03 0.04 0.04 0.05 0.05 0.06 0.11 0.18 0.30 0.42 0.73 1.14 1.24 1.10 0.89 0.86 1.03 1.22 1.16 1.09 1.21 1.35 1.56 1.74 2.04 2.34 2.61 2.80 2.84 2.76 2.72 2.69 2.66 2.46 2.21 2.08 2.02 1.90 1.85 1.88 1.80
0.08 0.06 0.05 0.04 0.04 0.04 0.04 0.05 0.09 0.17 0.30 0.50 0.39 0.51 0.90 1.11 1.00 0.83 0.82 0.92 1.07 1.23 1.24 1.28 1.47 1.59 1.66 1.84 2.10 2.27 2.40 2.45 2.41 2.32 2.28 2.30 2.24 2.18 2.03 1.88 1.89 1.92 1.86 1.74
0.16 0.16 0.11 0.08 0.06 0.05 0.05 0.12 0.31 0.54 0.75 0.68 0.45 0.58 0.93 0.86 0.72 0.65 0.70 0.87 1.08 1.31 1.32 1.39 1.55 1.64 1.69 1.72 1.77 1.83 1.87 1.92 1.86 1.78 1.74 1.78 1.80 1.82 1.75 1.73 1.79 1.83 1.76 1.68
0.25 0.23 0.16 0.13 0.11 0.08 0.08 0.16 0.39 0.42 0.50 0.53 0.56 0.79 0.89 0.72 0.60 0.59 0.62 0.75 0.99 1.11 1.17 1.28 1.36 1.27 1.21 1.23 1.28 1.31 1.32 1.34 1.31 1.33 1.37 1.40 1.49 1.54 1.53 1.64 1.65 1.70 1.68 1.63
0.13 0.14 0.12 0.13 0.14 0.13 0.16 0.22 0.20 0.32 0.34 0.51 0.66 0.79 0.77 0.60 0.69 0.74 0.76 0.81 0.84 0.84 0.82 0.84 0.86 0.89 0.95 0.97 0.97 0.97 1.01 1.02 0.97 0.97 1.06 1.14 1.20 1.28 1.30 1.40 1.43 1.41 1.41 1.34
0.05 0.07 0.09 0.08 0.10 0.12 0.18 0.28 0.38 0.55 0.62 0.62 0.63 0.86 1.00 0.98 0.96 0.90 1.00 1.19 1.03 0.74 0.62 0.59 0.59 0.63 0.67 0.70 0.75 0.79 0.88 0.97 0.95 0.88 0.88 0.90 0.95 1.00 1.10 1.17 1.19 1.23 1.26 1.23
0.04 0.06 0.10 0.11 0.12 0.17 0.28 0.35 0.44 0.55 0.59 0.61 0.66 0.79 0.67 0.93 0.99 0.98 1.00 1.00 0.83 0.54 0.38 0.33 0.34 0.39 0.46 0.59 0.67 0.69 0.80 0.88 0.84 0.74 0.73 0.77 0.80 0.83 0.89 0.96 0.98 1.03 1.09 1.16
0.03 0.05 0.10 0.14 0.14 0.13 0.22 0.34 0.44 0.55 0.56 0.57 0.61 0.74 0.51 0.65 0.70 0.71 0.73 0.57 0.44 0.31 0.23 0.21 0.21 0.25 0.33 0.42 0.47 0.55 0.64 0.74 0.76 0.72 0.72 0.76 0.79 0.79 0.79 0.82 0.81 0.82 0.88 0.91
0.02 0.04 0.12 0.28 0.30 0.20 0.18 0.20 0.27 0.37 0.44 0.46 0.59 0.75 0.51 0.46 0.52 0.50 0.44 0.36 0.27 0.22 0.17 0.16 0.17 0.21 0.24 0.29 0.36 0.43 0.48 0.56 0.64 0.66 0.71 0.77 0.77 0.75 0.79 0.82 0.82 0.80 0.80 0.82
0.02 0.03 0.06 0.22 0.26 0.17 0.16 0.21 0.25 0.30 0.40 0.39 0.41 0.58 0.55 0.47 0.41 0.37 0.30 0.24 0.21 0.17 0.16 0.14 0.15 0.16 0.16 0.19 0.26 0.31 0.35 0.41 0.49 0.57 0.72 0.85 0.91 0.92 0.92 0.88 0.88 0.86 0.82 0.84
0.03 0.03 0.04 0.06 0.07 0.09 0.12 0.17 0.21 0.27 0.30 0.37 0.34 0.42 0.47 0.40 0.33 0.27 0.23 0.22 0.22 0.20 0.15 0.12 0.11 0.10 0.11 0.14 0.17 0.25 0.33 0.37 0.44 0.59 0.80 0.91 0.90 0.85 0.84 0.83 0.89 0.87 0.79 0.77
0.03 0.03 0.05 0.09 0.12 0.16 0.19 0.23 0.20 0.18 0.16 0.18 0.25 0.34 0.29 0.27 0.26 0.26 0.24 0.21 0.20 0.16 0.13 0.11 0.10 0.09 0.08 0.08 0.10 0.17 0.27 0.34 0.43 0.55 0.67 0.71 0.76 0.78 0.75 0.70 0.68 0.71 0.73 0.73
0.04 0.04 0.04 0.08 0.18 0.22 0.29 0.26 0.27 0.28 0.22 0.23 0.35 0.37 0.27 0.24 0.19 0.16 0.14 0.13 0.13 0.11 0.09 0.09 0.08 0.08 0.07 0.07 0.10 0.16 0.23 0.29 0.40 0.48 0.53 0.61 0.72 0.74 0.68 0.59 0.63 0.70 0.72 0.71
0.04 0.04 0.05 0.09 0.21 0.38 0.29 0.10 0.08 0.13 0.16 0.16 0.20 0.20 0.18 0.15 0.12 0.09 0.07 0.07 0.07 0.06 0.06 0.06 0.06 0.06 0.05 0.07 0.12 0.16 0.22 0.28 0.39 0.49 0.57 0.62 0.73 0.74 0.69 0.67 0.67 0.68 0.68 0.68
0.04 0.04 0.06 0.10 0.17 0.24 0.16 0.07 0.06 0.09 0.11 0.05 0.08 0.09 0.09 0.07 0.07 0.10 0.06 0.03 0.03 0.04 0.05 0.05 0.04 0.05 0.09 0.11 0.13 0.18 0.26 0.31 0.39 0.50 0.62 0.72 0.80 0.80 0.75 0.73 0.71 0.69 0.67 0.63
0.05 0.05 0.05 0.07 0.16 0.23 0.14 0.09 0.10 0.11 0.22 0.12 0.09 0.08 0.06 0.06 0.14 0.16 0.05 0.01 0.01 0.04 0.08 0.08 0.07 0.10 0.16 0.17 0.18 0.25 0.32 0.41 0.52 0.60 0.69 0.76 0.81 0.84 0.81 0.80 0.78 0.74 0.73 0.66
0.08 0.06 0.05 0.06 0.12 0.15 0.09 0.10 0.11 0.20 0.27 0.08 0.05 0.04 0.04 0.07 0.12 0.09 0.02 0.01 0.02 0.03 0.09 0.12 0.16 0.24 0.25 0.23 0.28 0.36 0.41 0.49 0.55 0.64 0.72 0.81 0.89 0.86 0.83 0.86 0.88 0.86 0.83 0.82
0.10 0.09 0.09 0.10 0.17 0.20 0.10 0.09 0.10 0.12 0.07 0.05 0.04 0.03 0.03 0.04 0.04 0.04 0.03 0.03 0.03 0.05 0.08 0.15 0.26 0.31 0.29 0.33 0.46 0.54 0.56 0.55 0.59 0.69 0.78 0.89 0.96 0.81 0.75 0.91 0.95 0.95 0.95 0.95
0.12 0.12 0.14 0.18 0.20 0.15 0.14 0.13 0.14 0.12 0.08 0.06 0.04 0.03 0.03 0.03 0.03 0.04 0.03 0.04 0.07 0.10 0.12 0.14 0.23 0.29 0.32 0.42 0.59 0.76 0.76 0.69 0.69 0.77 0.88 0.92 0.94 0.98 1.00 0.98 0.99 1.01 1.00 1.02
0.14 0.14 0.17 0.24 0.23 0.16 0.13 0.12 0.10 0.10 0.07 0.05 0.04 0.03 0.03 0.03 0.03 0.03 0.03 0.04 0.08 0.11 0.12 0.14 0.20 0.29 0.39 0.48 0.64 0.79 0.82 0.80 0.83 0.89 0.94 0.98 1.01 1.02 1.07 1.14 1.12 1.08 1.04 1.06
0.12 0.13 0.13 0.20 0.21 0.16 0.10 0.07 0.07 0.07 0.07 0.06 0.05 0.05 0.04 0.03 0.04 0.04 0.04 0.05 0.07 0.09 0.10 0.14 0.23 0.35 0.42 0.49 0.60 0.69 0.74 0.85 0.95 0.99 1.01 1.05 1.07 1.10 1.14 1.16 1.11 1.03 1.00 0.90
0.11 0.12 0.17 0.19 0.13 0.14 0.11 0.07 0.08 0.06 0.05 0.05 0.05 0.04 0.04 0.04 0.04 0.05 0.05 0.06 0.08 0.10 0.12 0.18 0.24 0.32 0.39 0.46 0.56 0.65 0.77 0.92 1.07 1.10 1.03 1.02 1.01 1.05 1.10 1.10 0.96 0.74 0.67 0.61